Location: Bourg-d�Oueil
(42.8588°N, 0.4991°E)
Time: 02:52:31
(UTC+00:00)

Ariane Rocket - Pass Details

Date: 16 June 2021
Orbit: 759 x 771 km, 98.7° (Epoch: 04 August)

Event Time Altitude Azimuth Distance (km) Brightness Sun altitude
Exits shadow 20:10:01 - 166° (SSE) 3,258 5.8 -5.4°
Rises 20:10:07 0° 166° (SSE) 3,224 5.7 -5.4°
Reaches altitude 10° 20:12:24 10° 166° (SSE) 2,303 5.0 -5.8°
Maximum altitude 20:17:29 86° 255° (WSW) 778 3.1 -6.5°
Drops below altitude 10° 20:22:38 10° 345° (NNW) 2,323 6.5 -7.2°
Sets 20:24:57 0° 346° (NNW) 3,255 7.3 -7.5°
